{"data":{"norad_id":58593,"intl_designator":"2023-200E","name":"STARLINK-31094","alt_names":[],"object_type":"PAYLOAD","status":"ACTIVE","operator":null,"country":"US","launch_date":"2023-12-19","launch_site_code":"AFETR","launch_vehicle":null,"mission":null,"orbit_class":"UNKNOWN","rcs_meters":null,"size_class":null,"mass_kg":null,"dimensions":null,"purposes":["comms"],"wikipedia_slug":null,"has_3d_model":false,"image_url":null,"decayed_at":null,"tle_current":{"epoch":"2026-05-25T03:16:59.926080Z","epoch_age_seconds":63264,"freshness":"FRESH","line1":"1 58593U 23200E   26145.13680470  .00000296  00000+0  20299-4 0  9996","line2":"2 58593  43.0027  97.0210 0001281 289.0088  71.0625 15.27579092135304","mean_motion":15.27579092,"eccentricity":0.0001281,"inclination_deg":43.0027,"raan_deg":97.021,"arg_perigee_deg":289.0088,"mean_anomaly_deg":71.0625,"bstar":2.0299e-5,"rev_number":13530,"period_min":94.266804746238,"perigee_km":482.17289663246,"apogee_km":483.93073320684,"semimajor_km":6861.1888149197,"source":"CELESTRAK","updated_at":"2026-05-25T13:38:18.665636Z"}}}